Zurück zum Katalog

STARLINK-33640

AktivKommunikationVLEO
NORAD 63378·PAYLOAD·🇺🇸 United States

Gestartet Mar 26, 2025 von Vandenberg Space Force Base

Loading…

Nächste Überflüge (nächste 24 Stunden)

TLE

AktuellSource: CelesTrak SupGP

Epoche: Sep 15, 2026, 02:06 UTC

1 63378C 25063R   26258.08798611 -.00026482  00000+0 -78181-3 0  2585
2 63378  53.1575 250.9931 0001391  96.5261 188.9584 15.34427656    14

Verfolge STARLINK-33640 in Echtzeit mit AllMySat

Download on the App Store